Regional Weather Roundup
Issued by NWS

Home | Current Version | Previous Version | Graphics & Text | Print | Product List | Glossary On
Versions: 1 2 3 4 5 6 7 8 9 10 11 12 13 14 15 16 17 18 19 20 21 22 23 24 25 26 27 28 29 30 31 32 33 34 35 36 37 38 39 40 41 42 43 44 45 46 47 48 49 50
000
ASUS43 KDTX 220110
RWRMI
MICHIGAN HOURLY REGIONAL WEATHER ROUNDUP
NATIONAL WEATHER SERVICE DETROIT/PONTIAC MI
ISSUED BY NATIONAL WEATHER SERVICE GRAND RAPIDS MI
800 PM EST SAT JAN 21 2017

NOTE: "FAIR" INDICATES FEW OR NO CLOUDS BELOW 12,000 FEET WITH NO
SIGNIFICANT WEATHER AND/OR OBSTRUCTION TO VISIBILITY.

MIZ047>049-052>055-059>063-066>070-074>076-081>083-220200-
SOUTHEAST LOWER MICHIGAN

CITY           SKY/WX    TMP DP  RH WIND       PRES   REMARKS
ADRIAN         CLEAR     48  48 100 SE5       29.61S FOG
ALMA           FOG       42  41  98 CALM      29.58S VSB 1/4
ANN ARBOR      CLEAR     50  49  96 CALM      29.61R FOG
BAD AXE        FOG       43  43 100 SE6       29.62S VSB 1/2
DETROIT CITY   CLEAR     48  48 100 SE3       29.63S FOG
DETROIT        CLEAR     50  48  93 SE6       29.62S FOG
FLINT          CLEAR     46  45  96 S8        29.58F FOG
GROSSE ILE     FOG       44  43  99 S6        29.62S VSB 1
HILLSDALE      CLEAR     50  48  93 SE7       29.58S FOG
HOWELL         CLEAR     48  46  93 SE9       29.59R FOG

CITY           SKY/WX    TMP DP  RH WIND       PRES   REMARKS
JACKSON        CLEAR     52  48  86 S9        29.59R
LANSING        CLEAR     49  45  86 S7        29.59R
MASON          CLEAR     49  48  96 S8        29.58R
MONROE         CLEAR     49  49  99 S10       29.61S
MT. CLEMENS    FOG       40  40 100 SE5       29.61S VSB 1/8
PONTIAC        FOG       47  45  93 SE6       29.60S VSB 1/2
PORT HOPE        N/A     42  42 100 SE8       29.61F
PORT HURON       N/A     45  45 100 SE5       29.64S FOG
TRI CITIES     FOG       45  45 100 E5        29.59R VSB 1/16
YPSILANTI      CLEAR     50  49  96 S7        29.62R
$$
MIZ043>046-050>051-056>058-064>065-071>073-077>080-220200-
SOUTHWEST LOWER MICHIGAN

CITY           SKY/WX    TMP DP  RH WIND       PRES   REMARKS
BATTLE CREEK   MOCLDY    51  49  92 S6        29.58R
BENTON HARBOR  PTCLDY    50  45  83 CALM      29.55R
BIG RAPIDS     FOG       43  42  97 CALM      29.55R VSB 1/4
COLDWATER      CLEAR     52  51  99 SE8       29.57S
HOLLAND        PTCLDY    52  46  80 SW8       29.55R
GRAND RAPIDS   PTCLDY    50  46  86 S7        29.55R
KALAMAZOO      PTCLDY    51  47  86 S3        29.57R
MARSHALL       CLEAR     52  50  95 SE6       29.57R
MOUNT PLEASANT FOG       41  40  99 CALM      29.57S VSB 1/4
MUSKEGON       MOCLDY    53  46  77 SW14      29.54R
STURGIS        CLEAR     50  49  95 CALM      29.57R
$$
MIZ016>042-220200-
NORTHERN LOWER MICHIGAN

CITY           SKY/WX    TMP DP  RH WIND       PRES   REMARKS
ALPENA         FOG       36  35  96 E7        29.61F VSB 1/2 WCI  30
BEAVER ISLAND  CLOUDY    35  35 100 E10       29.56R FOG     WCI  28
BELLAIRE       CLOUDY    42  40  93 S3        29.57R
CADILLAC       FOG       42  41  97 SE6       29.54S VSB 1/4
CHARLEVOIX     CLOUDY    39  39 100 CALM      29.60R FOG
GAYLORD        FOG       40  37  89 SE10      29.56R VSB 1/4 WCI  33
HOUGHTON LAKE  FOG       42  41  96 SE6       29.57S VSB 1/4
MANISTEE       FOG       45  45 100 SE8       29.53R VSB 1
OSCODA         FOG       39  39  97 E6        29.61S VSB 1/2
PELLSTON       FOG       37  36  96 E8        29.59R VSB 1/2 WCI  31
TRAVERSE CITY  CLOUDY    44  42  93 CALM      29.54R
LUDINGTON      FOG       46  46 100 SE5       29.52S VSB 3/4
$$
MIZ007>008-015-220200-
EASTERN UPPER MICHIGAN

CITY           SKY/WX    TMP DP  RH WIND       PRES   REMARKS
KINROSS        MIX PCPN  35  34  96 E15       29.61R VSB 1/2 WCI  25
MACKINAC ISLAN SNOW      35  35 100 E16G26    29.58R VSB 1/4 WCI  25
NEWBERRY       FOG       34  33  96 E10       29.55S VSB 1/2 WCI  26
S. S. MARIE    CLOUDY    37  35  92 E9        29.61R FOG     WCI  30
$$
MIZ004>006-011>014-085-220200-
CENTRAL UPPER MICHIGAN

CITY           SKY/WX    TMP DP  RH WIND       PRES   REMARKS
MANISTIQUE     CLOUDY    35  34  97 E13G22    29.54S FOG     WCI  26
ESCANABA       MIX PCPN  36  35  96 NE6       29.52R FOG     WCI  31
SAWYER-GWINN   RAIN      34  34 100 CALM      29.51S
$$
MIZ001>003-009>011-084-220200-
WESTERN UPPER MICHIGAN

CITY           SKY/WX    TMP DP  RH WIND       PRES   REMARKS
IRON MOUNTAIN  CLOUDY    35  33  92 N3        29.48R FOG
HOUGHTON       LGT RAIN  34  32  92 E14       29.49F FOG     WCI  25
COPPER HARBOR    N/A     36  35  96 VRB3      29.54R
IRONWOOD       LGT RAIN  36  34  93 CALM      29.48S VSB 1
$$

ABBREVIATIONS USED IN REMARKS
   TC - TEMPERATURE IN CELSIUS
  WCI - WIND CHILL INDEX
   HX - HEAT INDEX
  VSB - VISIBILITY




USA.gov is the U.S. government's official web portal to all federal, state and local government web resources and services.